Seattle, WA
on Monday, February 18, 2013

Monday
Previous Day Next Day
Daily Summary
 ActualAverageRecord
Temperature
Mean Temperature °F 44°F  
Max Temperature 46°F 50°F 62°F (1977)
Min Temperature 39°F 37°F 20°F (1990)
Degree Days
Heating Degree Days 22 22  
Month to date heating degree days 358 396  
Since 1 July heating degree days 2932 3045  
Cooling Degree Days 0 0  
Month to date cooling degree days 0 0  
Year to date cooling degree days 0 0  
Moisture
Dew Point 35°F   
Average Humidity 72    
Maximum Humidity 86    
Minimum Humidity 58    
Precipitation
Precipitation T in 0.11 in 1.63 in (1968)
Month to date precipitation 0.51 2.29  
Year to date precipitation 4.67 7.86  
Snow
Snow 0.00 in in T in (1986)
Month to date snowfall 0.0  
Since 1 July snowfall 0.6  
Snow Depth 0.00 in   
Wind
Wind Speed 4 mph   
Max Wind Speed 10 mph   
Max Gust Speed 15 mph   
Visibility 10 miles   
Events Rain   

Key: T is trace of precipitation, MM is missing value
Source: NWS Daily Summary
Time(PST)TemperatureDew PointHumidity Pressure Visibility Wind DirectionWind SpeedGust SpeedPrecipitationEvents Conditions
12:30 AM 41.0°F 35.6°F 81% 30.09 in 10.0 miles SSE 4.6 mph - N/A   Overcast
12:53 AM 41.0°F 37.0°F 86% 30.12 in 10.0 miles SSE 3.5 mph - N/A   Overcast
1:53 AM 41.0°F 36.0°F 82% 30.09 in 10.0 miles Calm Calm - N/A   Overcast
2:14 AM 41.0°F 35.6°F 81% 30.06 in 10.0 miles Calm Calm - N/A   Overcast
2:53 AM 41.0°F 35.1°F 79% 30.08 in 10.0 miles Calm Calm - N/A   Overcast
3:53 AM 41.0°F 36.0°F 82% 30.06 in 10.0 miles Calm Calm - N/A   Overcast
4:53 AM 39.9°F 35.1°F 83% 30.04 in 10.0 miles SE 3.5 mph - N/A   Mostly Cloudy
5:53 AM 39.9°F 35.1°F 83% 30.03 in 10.0 miles SSE 4.6 mph - N/A   Overcast
6:53 AM 39.9°F 35.1°F 83% 30.01 in 10.0 miles SSE 5.8 mph - N/A   Overcast
7:53 AM 39.9°F 36.0°F 86% 30.02 in 10.0 miles South 4.6 mph - N/A   Overcast
8:53 AM 39.9°F 36.0°F 86% 30.01 in 10.0 miles SSE 8.1 mph - N/A   Overcast
9:30 AM 41.0°F 35.6°F 81% 29.97 in 10.0 miles ESE 9.2 mph - N/A   Overcast
9:53 AM 41.0°F 36.0°F 82% 30.00 in 10.0 miles South 5.8 mph - N/A   Overcast
10:04 AM 41.0°F 35.6°F 81% 29.98 in 10.0 miles SSW 4.6 mph - N/A   Overcast
10:53 AM 44.1°F 36.0°F 73% 29.99 in 10.0 miles SSW 6.9 mph - N/A   Overcast
11:31 AM 42.8°F 35.6°F 76% 29.95 in 10.0 miles SSW 6.9 mph - N/A   Overcast
11:53 AM 44.1°F 35.1°F 71% 29.97 in 10.0 miles South 6.9 mph - N/A   Overcast
12:53 PM 45.0°F 34.0°F 65% 29.95 in 10.0 miles SW 5.8 mph - N/A   Overcast
1:53 PM 46.0°F 34.0°F 63% 29.94 in 10.0 miles South 5.8 mph - N/A   Mostly Cloudy
2:38 PM 44.6°F 37.4°F 76% 29.90 in 7.0 miles SSW 6.9 mph - 0.00 in Rain Light Rain
2:53 PM 44.6°F 37.4°F 76% 29.89 in 10.0 miles South 4.6 mph - N/A Rain Light Rain
3:09 PM 44.6°F 37.4°F 76% 29.89 in 10.0 miles South 3.5 mph - 0.00 in   Overcast
3:53 PM 46.0°F 36.0°F 68% 29.90 in 10.0 miles South 5.8 mph - 0.00 in   Mostly Cloudy
4:53 PM 46.0°F 32.0°F 58% 29.87 in 10.0 miles SSW 8.1 mph - N/A   Overcast
5:53 PM 44.1°F 33.1°F 65% 29.86 in 10.0 miles South 3.5 mph - N/A   Mostly Cloudy
6:53 PM 45.0°F 34.0°F 65% 29.84 in 10.0 miles Calm Calm - 0.00 in Rain Light Rain
7:53 PM 44.1°F 34.0°F 68% 29.82 in 10.0 miles SSE 3.5 mph - 0.00 in Rain Light Rain
8:53 PM 43.0°F 34.0°F 71% 29.81 in 10.0 miles SE 6.9 mph - 0.00 in   Mostly Cloudy
9:53 PM 43.0°F 33.1°F 68% 29.80 in 10.0 miles ESE 4.6 mph - N/A   Overcast
10:53 PM 41.0°F 34.0°F 76% 29.80 in 10.0 miles SSW 3.5 mph - N/A   Overcast
11:53 PM 42.1°F 35.1°F 76% 29.78 in 10.0 miles Calm Calm - 0.00 in   Mostly Cloudy
Moon Phase
Feb. 18 Feb. 25 Mar. 04 Mar. 11 Mar. 19
Sunrise:07:08 AM (PST) Moon Rise:11:15 AM (PST)
Sunset:05:38 PM (PST) Moon Set:02:05 AM (PST)

Copyright © 2014 The Weather Underground, Inc.